When you browse on this site, cookies collect data to enhance your experience and personalize the content and advertising you see.
Visit our Privacy Policy to learn more. By continuing to use the site, you agree to this use of cookies and data.
EN

Hourly Weather Golabki

Today, 24 September, Thursday

Time Temperature Precipitation Wind Pressure Humidity
00:00 +18°C° 0 mm 3 mps 743 mmHg 79%
01:00 +17°C° 0 mm 3 mps 743 mmHg 81%
02:00 +17°C° 0 mm 3 mps 743 mmHg 84%
03:00 +16°C° 0 mm 3 mps 743 mmHg 86%
04:00 +16°C° 0 mm 3 mps 743 mmHg 89%
05:00 +16°C° 0.4 mm 3 mps 743 mmHg 89%
06:00 +17°C° 0.4 mm 3 mps 743 mmHg 89%
07:00 +17°C° 0.4 mm 3 mps 743 mmHg 89%
08:00 +18°C° 0.2 mm 3 mps 743 mmHg 79%
09:00 +20°C° 0.2 mm 3 mps 743 mmHg 70%
10:00 +21°C° 0.2 mm 4 mps 744 mmHg 61%
11:00 +22°C° 0 mm 4 mps 744 mmHg 57%
12:00 +23°C° 0 mm 4 mps 744 mmHg 53%
13:00 +25°C° 0 mm 5 mps 744 mmHg 49%
14:00 +25°C° 0 mm 4 mps 744 mmHg 51%
15:00 +25°C° 0 mm 3 mps 744 mmHg 53%
16:00 +25°C° 0 mm 3 mps 744 mmHg 55%
17:00 +23°C° 0 mm 2 mps 744 mmHg 59%
18:00 +21°C° 0 mm 2 mps 744 mmHg 64%
19:00 +19°C° 0 mm 2 mps 744 mmHg 69%
20:00 +20°C° 0 mm 1 mps 744 mmHg 71%
21:00 +19°C° 0 mm 1 mps 744 mmHg 73%
22:00 +19°C° 0 mm 1 mps 744 mmHg 75%
23:00 +18°C° 0 mm 1 mps 744 mmHg 76%

Tomorrow, 25 September, Friday

Time Temperature Precipitation Wind Pressure Humidity
00:00 +18°C° 0 mm 1 mps 743 mmHg 77%
01:00 +18°C° 0 mm 1 mps 743 mmHg 79%
02:00 +16°C° 0 mm 2 mps 742 mmHg 80%
03:00 +16°C° 0 mm 2 mps 742 mmHg 81%
04:00 +16°C° 0 mm 3 mps 741 mmHg 82%
05:00 +16°C° 0 mm 3 mps 740 mmHg 81%
06:00 +17°C° 0 mm 4 mps 740 mmHg 79%
07:00 +16°C° 0 mm 5 mps 739 mmHg 78%
08:00 +17°C° 0 mm 6 mps 738 mmHg 72%
09:00 +20°C° 0 mm 6 mps 738 mmHg 66%
10:00 +22°C° 0 mm 7 mps 737 mmHg 60%
11:00 +21°C° 0.2 mm 7 mps 737 mmHg 64%
12:00 +20°C° 0.2 mm 6 mps 737 mmHg 67%
13:00 +20°C° 0.2 mm 6 mps 736 mmHg 71%
14:00 +19°C° 0.8 mm 5 mps 736 mmHg 76%
15:00 +17°C° 0.8 mm 5 mps 736 mmHg 82%
16:00 +16°C° 0.8 mm 5 mps 736 mmHg 87%
17:00 +16°C° 1.6 mm 5 mps 736 mmHg 88%
18:00 +15°C° 1.6 mm 4 mps 737 mmHg 89%
19:00 +14°C° 1.6 mm 4 mps 737 mmHg 90%
20:00 +14°C° 0 mm 4 mps 737 mmHg 89%
21:00 +14°C° 0 mm 4 mps 738 mmHg 89%
22:00 +13°C° 0 mm 4 mps 738 mmHg 88%
23:00 +13°C° 0 mm 4 mps 738 mmHg 88%

Day after tomorrow, 26 September, Saturday

Time Temperature Precipitation Wind Pressure Humidity
00:00 +13°C° 0 mm 3 mps 738 mmHg 87%
01:00 +12°C° 0 mm 3 mps 738 mmHg 87%
02:00 +12°C° 0 mm 3 mps 738 mmHg 86%
03:00 +12°C° 0 mm 3 mps 738 mmHg 85%
04:00 +11°C° 0 mm 3 mps 738 mmHg 84%
05:00 +11°C° 0.3 mm 4 mps 738 mmHg 86%
06:00 +11°C° 0.3 mm 4 mps 738 mmHg 87%
07:00 +10°C° 0.3 mm 5 mps 737 mmHg 89%
08:00 +12°C° 0.3 mm 5 mps 737 mmHg 89%
09:00 +13°C° 0.3 mm 5 mps 737 mmHg 90%
10:00 +13°C° 0.3 mm 6 mps 737 mmHg 90%
11:00 +15°C° 0.2 mm 5 mps 737 mmHg 88%
12:00 +16°C° 0.2 mm 5 mps 736 mmHg 85%
13:00 +19°C° 0.2 mm 4 mps 736 mmHg 82%
14:00 +19°C° 1.1 mm 5 mps 736 mmHg 83%
15:00 +19°C° 1.1 mm 5 mps 735 mmHg 83%
16:00 +19°C° 1.1 mm 5 mps 735 mmHg 83%
17:00 +17°C° 0.2 mm 5 mps 735 mmHg 86%
18:00 +18°C° 0.2 mm 4 mps 736 mmHg 88%
19:00 +17°C° 0.2 mm 3 mps 736 mmHg 90%
20:00 +17°C° 0.1 mm 3 mps 736 mmHg 92%
21:00 +16°C° 0.1 mm 3 mps 736 mmHg 93%
22:00 +16°C° 0.1 mm 2 mps 737 mmHg 95%
23:00 +15°C° 0.6 mm 2 mps 737 mmHg 96%

27 September, Sunday

Time Temperature Precipitation Wind Pressure Humidity
00:00 +15°C° 0.6 mm 2 mps 736 mmHg 96%
01:00 +15°C° 0.6 mm 2 mps 736 mmHg 97%
02:00 +15°C° 0.5 mm 2 mps 736 mmHg 95%
03:00 +14°C° 0.5 mm 3 mps 736 mmHg 93%
04:00 +14°C° 0.5 mm 3 mps 736 mmHg 92%
05:00 +14°C° 0.7 mm 3 mps 736 mmHg 91%
06:00 +14°C° 0.7 mm 3 mps 736 mmHg 90%
07:00 +14°C° 0.7 mm 3 mps 736 mmHg 90%
08:00 +14°C° 1.1 mm 3 mps 736 mmHg 89%
09:00 +14°C° 1.1 mm 3 mps 736 mmHg 89%
10:00 +16°C° 1.1 mm 3 mps 737 mmHg 88%
11:00 +17°C° 0.2 mm 3 mps 737 mmHg 86%
12:00 +17°C° 0.2 mm 4 mps 737 mmHg 84%
13:00 +18°C° 0.2 mm 4 mps 737 mmHg 82%
14:00 +17°C° 0.2 mm 5 mps 737 mmHg 79%
15:00 +17°C° 0.2 mm 5 mps 737 mmHg 76%
16:00 +17°C° 0.2 mm 5 mps 737 mmHg 73%
17:00 +17°C° 0.2 mm 5 mps 738 mmHg 76%
18:00 +17°C° 0.2 mm 4 mps 738 mmHg 79%
19:00 +17°C° 0.2 mm 4 mps 738 mmHg 83%
20:00 +17°C° 0.1 mm 4 mps 738 mmHg 83%
21:00 +15°C° 0.1 mm 4 mps 739 mmHg 84%
22:00 +15°C° 0.1 mm 4 mps 739 mmHg 84%
23:00 +15°C° 0.1 mm 4 mps 739 mmHg 85%

28 September, Monday

Time Temperature Precipitation Wind Pressure Humidity
00:00 +15°C° 0.1 mm 4 mps 739 mmHg 85%
01:00 +15°C° 0.1 mm 4 mps 739 mmHg 86%
02:00 +14°C° 0 mm 5 mps 739 mmHg 88%
03:00 +13°C° 0 mm 5 mps 739 mmHg 89%
04:00 +12°C° 0 mm 5 mps 739 mmHg 91%
05:00 +12°C° 0 mm 5 mps 740 mmHg 89%
06:00 +10°C° 0 mm 5 mps 740 mmHg 88%
07:00 +10°C° 0 mm 6 mps 741 mmHg 87%
08:00 +10°C° 0 mm 5 mps 741 mmHg 83%
09:00 +10°C° 0 mm 5 mps 741 mmHg 80%
10:00 +12°C° 0 mm 5 mps 742 mmHg 77%
11:00 +12°C° 0 mm 5 mps 742 mmHg 74%
12:00 +13°C° 0 mm 6 mps 742 mmHg 72%
13:00 +13°C° 0 mm 6 mps 743 mmHg 69%
14:00 +13°C° 0 mm 5 mps 743 mmHg 70%
15:00 +12°C° 0 mm 5 mps 743 mmHg 71%
16:00 +12°C° 0 mm 4 mps 743 mmHg 72%
17:00 +12°C° 0 mm 4 mps 744 mmHg 72%
18:00 +12°C° 0 mm 4 mps 744 mmHg 73%
19:00 +11°C° 0 mm 4 mps 744 mmHg 74%
20:00 +11°C° 0 mm 4 mps 744 mmHg 76%
21:00 +10°C° 0 mm 4 mps 744 mmHg 77%
22:00 +8°C° 0 mm 4 mps 745 mmHg 79%
23:00 +9°C° 0 mm 3 mps 745 mmHg 79%

29 September, Tuesday

Time Temperature Precipitation Wind Pressure Humidity
00:00 +9°C° 0 mm 3 mps 745 mmHg 79%
01:00 +8°C° 0 mm 3 mps 745 mmHg 78%
02:00 +8°C° 0 mm 3 mps 745 mmHg 81%
03:00 +8°C° 0 mm 3 mps 745 mmHg 83%
04:00 +8°C° 0 mm 3 mps 745 mmHg 85%
05:00 +8°C° 0 mm 3 mps 745 mmHg 84%
06:00 +8°C° 0 mm 2 mps 745 mmHg 84%
07:00 +9°C° 0 mm 2 mps 745 mmHg 84%
08:00 +10°C° 0 mm 2 mps 745 mmHg 76%
09:00 +13°C° 0 mm 1 mps 745 mmHg 69%
10:00 +14°C° 0 mm 1 mps 745 mmHg 61%
11:00 +15°C° 0 mm 1 mps 746 mmHg 59%
12:00 +16°C° 0 mm 1 mps 746 mmHg 56%
13:00 +16°C° 0 mm 1 mps 746 mmHg 54%
14:00 +16°C° 0 mm 1 mps 746 mmHg 56%
15:00 +16°C° 0 mm 2 mps 746 mmHg 58%
16:00 +16°C° 0 mm 2 mps 746 mmHg 60%
17:00 +15°C° 0 mm 2 mps 746 mmHg 64%
18:00 +14°C° 0 mm 2 mps 746 mmHg 69%
19:00 +13°C° 0 mm 2 mps 747 mmHg 73%
20:00 +13°C° 0 mm 1 mps 747 mmHg 77%
21:00 +12°C° 0 mm 1 mps 747 mmHg 81%
22:00 +12°C° 0 mm 1 mps 747 mmHg 85%
23:00 +12°C° 0 mm 1 mps 747 mmHg 85%
Show more